Metar/Speci

METEOROLOGICAL AERODROME REPORT
STASIUN METEOROLOGI HANG NADIM BATAM
ADDS - METARS form results

Aviation Digital Data Service (ADDS)

Output produced by METARs form (1303 UTC 24 January 2021)
found at http://www.aviationweather.gov/metar/data/
 
Forecast for: WIDD (HANG NADIM , ID)
Text: TAF WIDD 241100Z 2412/2512 01007KT 9999 FEW014
Forecast period: 1200 UTC 24 January 2021 to 1200 UTC 25 January 2021
Forecast type: FROM: standard forecast or significant change
Winds: from the N (10 degrees) at 8 MPH (7 knots; 3.6 m/s)
Visibility: 6 or more miles (10+ km)
Ceiling: at least 12,000 feet AGL
Clouds: few clouds at 1400 feet AGL
Weather: no significant weather forecast for this period

Informasi METAR/SPECI dapat diakses juga di http://aviation.bmkg.go.id